Погода в Партизанске

Погода в Партизанске : погода сейчас, прогноз погоды и архив. Всё, что Вы хотите узнать о погоде в Партизанске!

Хотите узнать прогноз погоды в Партизанске? Тогда Вам сюда: Погода в Партизанске

Поиск расширенной информации на нашем сайте:

Другие новости

Новости СМИ2

Главная страница сайта

Новости сайта

03.07.2017

Напоминаем, что на нашем специализированном сайте Метеоцентр.Азия вы можете получить высокодетализированные автоматические прогнозы погоды по пунктам России, СНГ и мира в авиационном формате (включающие направление и скорость ветра, видимость, явления погоды, количество и форму облачности, нижнюю и верхнюю границу облачности).

Рекомендуем: Применяйте для похудения пластыри SOSO - новейшая разработка!

Погода в Партизанске - сегодня

Время (UTC), дата Ветер
(°,м/с) 
Видим.   Явления Облачность Т
(°С)
Тd
(°С)
f(%) Тe
(°С)
Pmin
(гПа)
dP
(гПа)
Po
(мм)
O2
(г/м3)
Тmin Tmax R s Состояние
почвы
21 11.12.17 340 (С) 5-11{14}  20000 м    6/0 средняя 
[Ac trans]
-17.4 -25 52 -23  1012.8  0.5  739  320  -17.6      15  равномерный
мокрый или
старый снег
100% 
00 12.12.17 340 (С) 6-11{16}  20000 м  позёмок  6/4 1000 м средняя 
[Sc|Ac trans]
-16.6 -24.8 49 -23  1014.8  740  319           
03 12.12.17 360 (С) 7-15{16}  20000 м  позёмок  10/9 600 м верхняя 
[Sc|Cs]
-14.6 -23.6 46 -21  1014.7  0.1  740  317           
06 12.12.17 350 (С) 7-16{16}  20000 м  позёмок  9/4 1000 м средняя, верхняя 
[Sc|Ac trans|Cs]
-14.4 -23.1 48 -21  1016.1  1.4  742  317           
09 12.12.17 360 (С) 6-11{16}  20000 м    6/6 1000 м 
[Sc]
-15.2 -24 47 -22  1019.2  2.9  744  319    -13.7       
12 12.12.17 350 (С) 9-15{16}  20000 м  позёмок  6/6 1000 м 
[Sc]
-15.9 -24.3 48 -24  1020  0.7  744  320           
15 12.12.17 350 (С) 9-15{16}  20000 м  позёмок  4/4 1000 м 
[Sc]
-16.6 -25.9 44 -25  1021.5  1.4  745  321           
18 12.12.17 350 (С) 10-14{16}  20000 м  позёмок  3/3 1000 м 
[Sc]
-17.7 -26.3 47 -27  1022.2  0.5  746  323           
21 12.12.17 010 (С) 8-12{16}  20000 м    3/3 1000 м средняя 
[Sc|Ac trans]
-18.5 -26.6 49 -27  1023  0.7  746  324  -18.6      равномерный
мокрый или
старый снег
100% 
00 13.12.17 010 (С) 8-12{14}  20000 м  позёмок  3/1 1000 м верхняя 
[Sc|Ci fib]
-18.5 -26.3 50 -27  1024.4  1.4  747  325  -18.7         
03 13.12.17 010 (С) 9-15{17}  20000 м  позёмок  10/0 средняя, верхняя 
[Ac lent|Ci]
-13.8 -23.4 44 -22  1022.6  -1.3  746  318           
06 13.12.17 020 (С) 9-14{16}  20000 м  позёмок  10/3 1000 м средняя, верхняя 
[Sc|Ac lent|Ci sp]
-13.9 -23 46 -22  1023.6  747  319           
09 13.12.17 010 (С) 9-15{16}  20000 м  позёмок  10/1 1000 м верхняя 
[Sc|Ci fib]
-14.8 -23 50 -23  1026.4  2.5  749  321    -12.6       
12 13.12.17 010 (С) 7-11{16}  20000 м  позёмок  8/1 1000 м верхняя 
[Sc|Ci fib]
-14.7 -22.3 52 -22  1028.7  2.3  751  321           
15 13.12.17 360 (С) 7-11{13}  20000 м  позёмок  8/1 1000 м верхняя 
[Sc|Ci fib]
-15.3 -22.3 55 -22  1029.7  751  322           
18 13.12.17 360 (С) 8-13{13}  20000 м  позёмок  ясно 
-15.3 -22 57 -23  1030.2  0.5  752  323           
21 13.12.17 350 (С) 8-11{14}  20000 м  позёмок  ясно 
-15.2 -22 56 -23  1030.8  0.5  752  323  -15.4      равномерный
мокрый или
старый снег
100% 
00 14.12.17 360 (С) 8-12{15}  20000 м  позёмок  1/1 1000 м 
[Sc]
-14.4 -22 52 -22  1031.5  0.8  753  322           
03 14.12.17 350 (С) 7-12{13}  20000 м    ясно 
-10.2 -19.1 48 -16  1029.5  -1.5  752  316           
06 14.12.17 010 (С) 5{13}  20000 м    ясно 
-7.8 -17.7 45 -12  1028.2  -1  751  313           
09 14.12.17 350 (С) 6{11}  20000 м    ясно 
-11.5 -19.8 50 -17  1029.8  1.1  752  318    -7.7       
12 14.12.17 360 (С) 20000 м    ясно 
-12.6 -22.7 43 -18  1030.1  0.2  752  319           
15 14.12.17 340 (С) 20000 м    ясно 
-14.2 -24.5 41 -19  1030  -0.2  752  321           
18 14.12.17 350 (С) 20000 м    ясно 
-15.6 -24.3 47 -20  1029.2  -1  751  323           
21 14.12.17 350 (С) 20000 м    5/0 верхняя 
[Ci fib]
-16.8 -23.9 54 -19  1028.2  -1  750  324  -17.6      равномерный
мокрый или
старый снег
100% 
Время (UTC), дата Ветер
(°,м/с) 
Видим.   Явления Облачность Т
(°С)
Тd
(°С)
f(%) Тe
(°С)
Pmin
(гПа)
dP
(гПа)
Po
(мм)
O2
(г/м3)
Тmin Tmax R s Состояние
почвы

Для получения пояснительной информации подведите курсор к названию столбца.

ПОГОДА в Партизанске - архив

Всё, что Вы хотите узнать о погоде в Партизанске - удобно и подробно!

Выберите нужную дату (начиная с 1 января 2015* года) и нажмите кнопку "Найти".
Будут отображены архивные сводки погоды по пункту Партизанск, начиная с указанной даты.


Отображать данные в формате CSV (для использования в таблицах Excel)


Внимание! Наш архив погоды предназначен исключительно для личного некоммерческого использования в познавательных целях. Если Вам необходимы официальные справки о состоянии погоды (для производственных, юридических, коммерческих и т.п. целей), обращайтесь в органы Росгидромета.

*Примечание: данная дата относится к архиву по метеостанциям СССР (Россия, СНГ, Балтия).
Архив по метеостанциям Зарубежной Европы и Азии (кроме Китая) хранится 10 дней, по другим регионам земного шара (Китай, Африка, Америка, Австралия, Океания) - 1 день.

Партизанск - район местоположения метеостанции


Название, широта, долгота, высота метеостанции:
Партизанск 43.2°ш. 133°д. 208 м над ур. моря [Российская Федерация]

Дополнительная информация

В oтличие oт бoльшинства пoгoдных сайтoв мы публикуем пoдрoбную метеoинфoрмацию в детальнoм прoфессиoнальнoм фoрмате.

Характеристики температуры и влажнoсти вoздуха измеряются на высoте 2 м в тени вдали oт зданий и деревьев.
Скoрoсть ветра измеряется на высoте 10 м (на урoвне рoста челoвека скoрoсть ветра ниже в 1.5-2 раза). Если метеoстанция нахoдится в гoрoде или в лесу, тo скoрoсть ветра занижена на 2-4 м/с пo сравнению с oткрытым местoм. Скoрoсть ветра над акватoриями крупных рек и oзёр, а также на вершинах хoлмoв на 2-5 м/с выше, чем в oбычных услoвиях.
Атмoсфернoе давление в разных тoчках местнoсти мoжет значительнo oтличаться oт давления на метеoстанции, в зависимoсти oт услoвий рельефа (при пoдъёме на 10 м давление пoнижается примернo на 1 мм рт.ст.).